Regional Weather Roundup
Issued by NWS

Home | Current Version | Previous Version | Text Only | Print | Product List | Glossary Off
Versions: 1 2 3 4 5 6 7 8 9 10 11 12 13 14 15 16 17 18 19 20 21 22 23 24 25 26 27 28 29 30 31 32 33 34 35 36 37 38 39 40 41 42 43 44 45 46 47 48 49 50

391
ASUS45 KSLC 172010
RWRUT

UTAH REGIONAL WEATHER ROUNDUP
NATIONAL WEATHER SERVICE SALT LAKE CITY UT
200 PM MDT THU AUG 17 2017

UTZ001>011-023>025-172100-

NORTHERN UTAH

CITY           SKY/WX    TMP DP  RH WIND       PRES   REMARKS
BRIGHAM CITY   SUNNY     84  35  17 SW3       30.14S
HILL AFB       MOSUNNY   84  39  20 W9        30.17S
LOGAN          SUNNY     86  40  19 MISG      30.13F
OGDEN          SUNNY     85  40  20 W9        30.13F
SALT LAKE CITY MOSUNNY   89  39  17 W9        30.11F
TOOELE VALLEY  SUNNY     88  43  20 N8        30.13S
WENDOVER       SUNNY     87  40  19 SE10      30.13F
HEBER CITY     SUNNY     86  32  14 SW14      30.18F
WEST JORDAN    MOSUNNY   85  53  32 E3        30.15F

$$

UTZ011>015-024>027-172100-

CENTRAL/NORTHEAST UTAH

CITY           SKY/WX    TMP DP  RH WIND       PRES   REMARKS
PROVO AIRPORT  SUNNY     87  40  19 SW6       30.15F
MOAB/CANYONLAN SUNNY     89  32  13 SE7       30.11F
DELTA          SUNNY     86  32  14 W6        30.16F
PRICE          MOSUNNY   83  34  17 CALM      30.22F
ROOSEVELT      SUNNY     86  36  16 S5        30.18F
VERNAL         SUNNY     83  42  23 CALM      30.18F

$$

UTZ013>016-019>022-027-172100-

SOUTHERN UTAH

CITY           SKY/WX    TMP DP  RH WIND       PRES   REMARKS
BRYCE CANYON   MOSUNNY   77  33  20 S8        30.37F
CEDAR CITY     MOSUNNY   85  36  17 SW6       30.22F
MILFORD        SUNNY     88  36  15 SE8       30.16F
ST GEORGE      CLEAR     94  41  16 VRB5      30.04F HX  90
HANKSVILLE     SUNNY     90  32  12 CALM      30.13F
BLANDING       SUNNY     84  29  13 S8        30.31S

$$

REGIONAL REPORTS     COLORADO/ARIZONA

CITY           SKY/WX    TMP DP  RH WIND       PRES   REMARKS
CRAIG, CO      CLOUDY    82  29  14 W8        30.22F
GRAND JUNCTION SUNNY     87  33  14 NW9       30.15F
RIFLE, CO      SUNNY     87  28  12 W16       30.18F
MONTROSE, CO   SUNNY     83  35  18 N12       30.22F
CORTEZ, CO     SUNNY     85  26  11 VRB3      30.23F
COLORADO CITY    N/A     90  36  14 NW3       30.21F
PAGE, AZ       SUNNY     91  35  13 VRB3      30.12F
GRAND CANYON   MOSUNNY   81  37  20 SW7G16    30.31F
KINGMAN, AZ    SUNNY     92  40  16 S7G17     30.10S
FLAGSTAFF, AZ  SUNNY     75  30  19 SW13      30.36S

$$

REGIONAL REPORTS    NEVADA/IDAHO/WYOMING

CITY           SKY/WX    TMP DP  RH WIND       PRES   REMARKS
LAS VEGAS, NV  MOSUNNY   97  41  14 VRB3      29.99F HX  92
ELY, NY        MOSUNNY   82  34  17 VRB5      30.26F
ELKO, NV       SUNNY     86  28  12 W16G22    30.19F
POCATELLO, ID  SUNNY     84  37  18 SW18      30.16S
BURLEY, ID     SUNNY     80  42  25 W14G22    30.13F
FORT BRIDGER,  MOCLDY    81  31  16 W18G25    30.30S
EVANSTON, WY   MOSUNNY   76  35  22 W15G23    30.29F
ROCK SPRINGS,  SUNNY     79  31  17 W17G24    30.24F
KEMMERER, WY     N/A     73  32  21 W17G32    30.29F

$$




USA.gov is the U.S. government's official web portal to all federal, state and local government web resources and services.